Time,TemperatureF,DewpointF,PressureIn,WindDirection,WindDirectionDegrees,WindSpeedMPH,WindSpeedGustMPH,Humidity,HourlyPrecipIn,Conditions,Clouds,dailyrainin,SoftwareType,DateUTC
2013-04-10 00:03:00,69.0,50.0,29.95,SW,215,0.0,6.0,51,0.00,,,0.00,,2013-04-10 04:03:00,
2013-04-10 00:13:00,69.0,50.0,29.95,SW,215,0.0,6.0,51,0.00,,,0.00,,2013-04-10 04:13:00,
2013-04-10 00:23:00,69.0,50.0,29.95,SW,225,3.0,7.0,50,0.00,,,0.00,,2013-04-10 04:23:00,
2013-04-10 00:33:00,69.0,50.0,29.95,SW,227,1.0,5.0,50,0.00,,,0.00,,2013-04-10 04:33:00,
2013-04-10 00:43:00,69.0,50.0,29.95,SW,227,1.0,5.0,50,0.00,,,0.00,,2013-04-10 04:43:00,
2013-04-10 00:53:00,69.0,50.0,29.95,SW,219,0.0,8.0,50,0.00,,,0.00,,2013-04-10 04:53:00,
2013-04-10 01:03:00,69.0,50.0,29.96,SW,225,1.0,6.0,50,0.00,,,0.00,,2013-04-10 05:03:00,
2013-04-10 01:13:00,69.0,50.0,29.96,SW,225,1.0,6.0,50,0.00,,,0.00,,2013-04-10 05:13:00,
2013-04-10 01:23:00,68.0,49.0,29.96,SW,225,1.0,1.0,50,0.00,,,0.00,,2013-04-10 05:23:00,
2013-04-10 01:33:00,68.0,49.0,29.96,SW,236,1.0,6.0,50,0.00,,,0.00,,2013-04-10 05:33:00,
2013-04-10 01:42:00,68.0,49.0,29.96,SW,236,1.0,6.0,50,0.00,,,0.00,,2013-04-10 05:42:00,
2013-04-10 01:53:00,68.0,49.0,29.96,SW,231,0.0,5.0,50,0.00,,,0.00,,2013-04-10 05:53:00,
2013-04-10 02:03:00,68.0,49.0,29.97,SW,234,1.0,5.0,50,0.00,,,0.00,,2013-04-10 06:03:00,
2013-04-10 02:12:00,68.0,49.0,29.96,WSW,244,2.0,6.0,50,0.00,,,0.00,,2013-04-10 06:12:00,
2013-04-10 02:22:00,68.0,49.0,29.96,WSW,244,2.0,6.0,50,0.00,,,0.00,,2013-04-10 06:22:00,
2013-04-10 02:32:00,67.0,48.0,29.96,SW,219,0.0,3.0,51,0.00,,,0.00,,2013-04-10 06:32:00,
2013-04-10 02:42:00,67.0,48.0,29.96,SW,219,0.0,3.0,51,0.00,,,0.00,,2013-04-10 06:42:00,
2013-04-10 02:52:00,67.0,48.0,29.97,SW,229,1.0,9.0,51,0.00,,,0.00,,2013-04-10 06:52:00,
2013-04-10 03:02:00,67.0,48.0,29.96,WSW,240,5.0,7.0,51,0.00,,,0.00,,2013-04-10 07:02:00,
2013-04-10 03:12:00,67.0,48.0,29.96,WSW,240,5.0,7.0,51,0.00,,,0.00,,2013-04-10 07:12:00,
2013-04-10 03:22:00,67.0,49.0,29.97,SW,236,0.0,8.0,52,0.00,,,0.00,,2013-04-10 07:22:00,
2013-04-10 03:32:00,66.0,48.0,29.97,SW,227,1.0,5.0,52,0.00,,,0.00,,2013-04-10 07:32:00,
2013-04-10 03:42:00,66.0,48.0,29.97,SW,227,1.0,5.0,52,0.00,,,0.00,,2013-04-10 07:42:00,
2013-04-10 03:52:00,66.0,48.0,29.97,SW,227,1.0,5.0,52,0.00,,,0.00,,2013-04-10 07:52:00,
2013-04-10 04:02:00,66.0,49.0,29.97,SW,225,0.0,3.0,54,0.00,,,0.00,,2013-04-10 08:02:00,
2013-04-10 04:12:00,66.0,49.0,29.97,SW,225,0.0,3.0,54,0.00,,,0.00,,2013-04-10 08:12:00,
2013-04-10 04:22:00,66.0,49.0,29.97,WSW,238,0.0,2.0,54,0.00,,,0.00,,2013-04-10 08:22:00,
2013-04-10 04:32:00,66.0,49.0,29.98,SW,225,0.0,6.0,55,0.00,,,0.00,,2013-04-10 08:32:00,
2013-04-10 04:42:00,66.0,49.0,29.98,SW,225,0.0,6.0,55,0.00,,,0.00,,2013-04-10 08:42:00,
2013-04-10 04:52:00,66.0,50.0,29.98,SW,228,3.0,6.0,56,0.00,,,0.00,,2013-04-10 08:52:00,
2013-04-10 05:02:00,66.0,50.0,29.98,SW,225,2.0,6.0,56,0.00,,,0.00,,2013-04-10 09:02:00,
2013-04-10 05:12:00,66.0,50.0,29.98,SW,225,1.0,2.0,56,0.00,,,0.00,,2013-04-10 09:12:00,
2013-04-10 05:22:00,66.0,50.0,29.98,SW,225,1.0,2.0,56,0.00,,,0.00,,2013-04-10 09:22:00,
2013-04-10 05:32:00,66.0,50.0,29.99,SSW,208,0.0,3.0,56,0.00,,,0.00,,2013-04-10 09:32:00,
2013-04-10 05:43:00,66.0,50.0,29.99,SSW,208,0.0,3.0,56,0.00,,,0.00,,2013-04-10 09:43:00,
2013-04-10 05:52:00,66.0,50.0,29.97,SSW,201,1.0,5.0,57,0.00,,,0.00,,2013-04-10 09:52:00,
2013-04-10 06:03:00,66.0,50.0,29.97,SSW,201,1.0,5.0,57,0.00,,,0.00,,2013-04-10 10:03:00,
2013-04-10 06:13:00,65.0,49.0,29.97,SW,225,0.0,0.0,57,0.00,,,0.00,,2013-04-10 10:13:00,
2013-04-10 06:23:00,65.0,49.0,29.97,SW,225,0.0,0.0,57,0.00,,,0.00,,2013-04-10 10:23:00,
2013-04-10 06:33:00,64.0,48.0,29.97,SSW,202,0.0,0.0,57,0.00,,,0.00,,2013-04-10 10:33:00,
2013-04-10 06:43:00,64.0,48.0,29.97,SSW,202,0.0,0.0,57,0.00,,,0.00,,2013-04-10 10:43:00,
2013-04-10 06:53:00,64.0,49.0,29.97,SW,225,0.0,0.0,58,0.00,,,0.00,,2013-04-10 10:53:00,
2013-04-10 07:02:00,64.0,49.0,29.97,SSW,202,0.0,5.0,58,0.00,,,0.00,,2013-04-10 11:02:00,
2013-04-10 07:12:00,64.0,49.0,29.97,SSW,202,0.0,5.0,58,0.00,,,0.00,,2013-04-10 11:12:00,
2013-04-10 07:22:00,63.0,48.0,29.97,SW,225,0.0,0.0,59,0.00,,,0.00,,2013-04-10 11:22:00,
2013-04-10 07:32:00,63.0,49.0,29.97,SW,225,0.0,0.0,60,0.00,,,0.00,,2013-04-10 11:32:00,
2013-04-10 07:42:00,63.0,49.0,29.97,SW,225,0.0,0.0,60,0.00,,,0.00,,2013-04-10 11:42:00,
2013-04-10 07:53:00,63.0,49.0,29.98,SSW,202,0.0,0.0,61,0.00,,,0.00,,2013-04-10 11:53:00,
2013-04-10 08:03:00,63.0,49.0,29.98,WSW,248,0.0,5.0,61,0.00,,,0.00,,2013-04-10 12:03:00,
2013-04-10 08:12:00,63.0,49.0,29.98,WSW,248,0.0,5.0,61,0.00,,,0.00,,2013-04-10 12:12:00,
2013-04-10 08:23:00,63.0,50.0,29.99,SSW,202,0.0,3.0,63,0.00,,,0.00,,2013-04-10 12:23:00,
2013-04-10 08:33:00,64.0,51.0,29.99,SSW,202,0.0,3.0,62,0.00,,,0.00,,2013-04-10 12:33:00,
2013-04-10 08:42:00,64.0,51.0,29.99,SSW,202,0.0,3.0,62,0.00,,,0.00,,2013-04-10 12:42:00,
2013-04-10 08:52:00,65.0,52.0,29.99,SSW,205,1.0,7.0,62,0.00,,,0.00,,2013-04-10 12:52:00,
2013-04-10 09:02:00,66.0,53.0,29.99,SSW,207,2.0,9.0,62,0.00,,,0.00,,2013-04-10 13:02:00,
2013-04-10 09:12:00,66.0,53.0,29.99,SSW,207,2.0,9.0,62,0.00,,,0.00,,2013-04-10 13:12:00,
2013-04-10 09:23:00,67.0,54.0,29.99,SSW,208,5.0,15.0,62,0.00,,,0.00,,2013-04-10 13:23:00,
2013-04-10 09:32:00,68.0,53.0,29.98,SW,229,3.0,14.0,59,0.00,,,0.00,,2013-04-10 13:32:00,
2013-04-10 09:43:00,68.0,53.0,29.98,SW,229,3.0,14.0,59,0.00,,,0.00,,2013-04-10 13:43:00,
2013-04-10 09:52:00,70.0,55.0,29.98,SW,221,6.0,12.0,58,0.00,,,0.00,,2013-04-10 13:52:00,
2013-04-10 10:02:00,70.0,54.0,29.98,SW,228,6.0,12.0,57,0.00,,,0.00,,2013-04-10 14:02:00,
2013-04-10 10:12:00,70.0,54.0,29.98,SW,228,6.0,12.0,57,0.00,,,0.00,,2013-04-10 14:12:00,
2013-04-10 10:22:00,71.0,54.0,29.99,SW,221,5.0,16.0,56,0.00,,,0.00,,2013-04-10 14:22:00,
2013-04-10 10:33:00,71.0,54.0,29.99,SW,224,8.0,21.0,56,0.00,,,0.00,,2013-04-10 14:33:00,
2013-04-10 10:42:00,71.0,54.0,29.99,SW,224,8.0,21.0,56,0.00,,,0.00,,2013-04-10 14:42:00,
2013-04-10 10:52:00,72.0,55.0,29.98,SW,220,6.0,16.0,55,0.00,,,0.00,,2013-04-10 14:52:00,
2013-04-10 11:03:00,72.0,54.0,29.98,WSW,237,4.0,10.0,54,0.00,,,0.00,,2013-04-10 15:03:00,
2013-04-10 11:12:00,72.0,54.0,29.98,WSW,237,4.0,10.0,54,0.00,,,0.00,,2013-04-10 15:12:00,
2013-04-10 11:23:00,73.0,55.0,29.98,SW,216,5.0,10.0,54,0.00,,,0.00,,2013-04-10 15:23:00,
2013-04-10 11:33:00,74.0,56.0,29.97,SW,234,1.0,7.0,53,0.00,,,0.00,,2013-04-10 15:33:00,
2013-04-10 11:42:00,74.0,56.0,29.97,SW,234,1.0,7.0,53,0.00,,,0.00,,2013-04-10 15:42:00,
2013-04-10 11:53:00,75.0,57.0,29.97,SW,224,3.0,13.0,53,0.00,,,0.00,,2013-04-10 15:53:00,
2013-04-10 12:03:00,76.0,57.0,29.97,SSW,192,5.0,13.0,52,0.00,,,0.00,,2013-04-10 16:03:00,
2013-04-10 12:13:00,76.0,57.0,29.97,SSW,192,5.0,13.0,52,0.00,,,0.00,,2013-04-10 16:13:00,
2013-04-10 12:23:00,76.0,57.0,29.97,SW,233,7.0,15.0,52,0.00,,,0.00,,2013-04-10 16:23:00,
2013-04-10 12:33:00,78.0,58.0,29.97,WSW,240,3.0,7.0,51,0.00,,,0.00,,2013-04-10 16:33:00,
2013-04-10 12:43:00,78.0,58.0,29.97,WSW,240,3.0,7.0,51,0.00,,,0.00,,2013-04-10 16:43:00,
2013-04-10 12:52:00,78.0,58.0,29.97,WSW,240,3.0,7.0,51,0.00,,,0.00,,2013-04-10 16:52:00,
2013-04-10 13:03:00,79.0,58.0,29.95,SW,229,13.0,21.0,49,0.00,,,0.00,,2013-04-10 17:03:00,
2013-04-10 13:13:00,80.0,59.0,29.95,SW,234,3.0,14.0,48,0.00,,,0.00,,2013-04-10 17:13:00,
2013-04-10 13:22:00,80.0,59.0,29.95,SW,234,3.0,14.0,48,0.00,,,0.00,,2013-04-10 17:22:00,
2013-04-10 13:33:00,81.0,59.0,29.94,SW,228,3.0,12.0,47,0.00,,,0.00,,2013-04-10 17:33:00,
2013-04-10 13:43:00,81.0,59.0,29.94,SW,228,3.0,12.0,47,0.00,,,0.00,,2013-04-10 17:43:00,
2013-04-10 13:52:00,81.0,58.0,29.94,WSW,240,5.0,16.0,46,0.00,,,0.00,,2013-04-10 17:52:00,
2013-04-10 14:03:00,81.0,58.0,29.93,WSW,237,7.0,17.0,46,0.00,,,0.00,,2013-04-10 18:03:00,
2013-04-10 14:12:00,81.0,58.0,29.93,WSW,237,7.0,17.0,46,0.00,,,0.00,,2013-04-10 18:12:00,
2013-04-10 14:23:00,82.0,59.0,29.92,SW,236,6.0,15.0,45,0.00,,,0.00,,2013-04-10 18:23:00,
2013-04-10 14:33:00,82.0,59.0,29.92,SW,234,6.0,14.0,45,0.00,,,0.00,,2013-04-10 18:33:00,
2013-04-10 14:42:00,82.0,59.0,29.92,SW,234,6.0,14.0,45,0.00,,,0.00,,2013-04-10 18:42:00,
2013-04-10 14:53:00,81.0,58.0,29.91,WSW,244,5.0,13.0,45,0.00,,,0.00,,2013-04-10 18:53:00,
2013-04-10 15:03:00,81.0,57.0,29.90,WSW,238,4.0,15.0,44,0.00,,,0.00,,2013-04-10 19:03:00,
2013-04-10 15:13:00,81.0,57.0,29.90,WSW,238,4.0,15.0,44,0.00,,,0.00,,2013-04-10 19:13:00,
2013-04-10 15:22:00,82.0,58.0,29.90,SW,233,4.0,13.0,44,0.00,,,0.00,,2013-04-10 19:22:00,
2013-04-10 15:33:00,83.0,58.0,29.90,SW,228,7.0,14.0,43,0.00,,,0.00,,2013-04-10 19:33:00,
2013-04-10 15:42:00,83.0,58.0,29.90,SW,228,7.0,14.0,43,0.00,,,0.00,,2013-04-10 19:42:00,
2013-04-10 15:52:00,82.0,56.0,29.90,SW,225,6.0,15.0,41,0.00,,,0.00,,2013-04-10 19:52:00,
2013-04-10 16:03:00,82.0,56.0,29.90,SW,225,6.0,15.0,41,0.00,,,0.00,,2013-04-10 20:03:00,
2013-04-10 16:12:00,82.0,57.0,29.89,WSW,243,1.0,12.0,42,0.00,,,0.00,,2013-04-10 20:12:00,
2013-04-10 16:23:00,82.0,57.0,29.89,WSW,243,1.0,12.0,42,0.00,,,0.00,,2013-04-10 20:23:00,
2013-04-10 16:33:00,82.0,57.0,29.88,SW,235,6.0,13.0,42,0.00,,,0.00,,2013-04-10 20:33:00,
2013-04-10 16:43:00,82.0,57.0,29.87,WSW,243,6.0,10.0,42,0.00,,,0.00,,2013-04-10 20:43:00,
2013-04-10 16:52:00,82.0,57.0,29.87,WSW,243,6.0,10.0,42,0.00,,,0.00,,2013-04-10 20:52:00,
2013-04-10 17:03:00,82.0,57.0,29.86,WSW,253,3.0,15.0,42,0.00,,,0.00,,2013-04-10 21:03:00,
2013-04-10 17:13:00,82.0,57.0,29.86,WSW,253,3.0,15.0,42,0.00,,,0.00,,2013-04-10 21:13:00,
2013-04-10 17:22:00,82.0,57.0,29.84,SW,215,0.0,10.0,42,0.00,,,0.00,,2013-04-10 21:22:00,
2013-04-10 17:33:00,82.0,55.0,29.84,WSW,242,6.0,14.0,40,0.00,,,0.00,,2013-04-10 21:33:00,
2013-04-10 17:43:00,82.0,55.0,29.84,WSW,242,6.0,14.0,40,0.00,,,0.00,,2013-04-10 21:43:00,
2013-04-10 17:53:00,82.0,56.0,29.84,SW,226,8.0,14.0,41,0.00,,,0.00,,2013-04-10 21:53:00,
2013-04-10 18:03:00,81.0,54.0,29.85,WSW,245,8.0,16.0,40,0.00,,,0.00,,2013-04-10 22:03:00,
2013-04-10 18:13:00,81.0,54.0,29.85,WSW,245,8.0,16.0,40,0.00,,,0.00,,2013-04-10 22:13:00,
2013-04-10 18:23:00,81.0,54.0,29.84,SW,222,6.0,15.0,40,0.00,,,0.00,,2013-04-10 22:23:00,
2013-04-10 18:33:00,81.0,55.0,29.84,SSW,202,9.0,14.0,41,0.00,,,0.00,,2013-04-10 22:33:00,
2013-04-10 18:42:00,81.0,55.0,29.84,SSW,202,9.0,14.0,41,0.00,,,0.00,,2013-04-10 22:42:00,
2013-04-10 18:52:00,80.0,54.0,29.84,WNW,283,2.0,10.0,41,0.00,,,0.00,,2013-04-10 22:52:00,
2013-04-10 19:03:00,80.0,54.0,29.84,WSW,249,6.0,13.0,41,0.00,,,0.00,,2013-04-10 23:03:00,
2013-04-10 19:12:00,80.0,54.0,29.84,WSW,249,6.0,13.0,41,0.00,,,0.00,,2013-04-10 23:12:00,
2013-04-10 19:22:00,79.0,53.0,29.84,SW,232,1.0,16.0,41,0.00,,,0.00,,2013-04-10 23:22:00,
2013-04-10 19:33:00,79.0,54.0,29.84,SSW,204,8.0,12.0,42,0.00,,,0.00,,2013-04-10 23:33:00,
2013-04-10 19:42:00,79.0,54.0,29.84,SSW,204,8.0,12.0,42,0.00,,,0.00,,2013-04-10 23:42:00,
2013-04-10 19:53:00,78.0,53.0,29.85,SW,224,4.0,13.0,42,0.00,,,0.00,,2013-04-10 23:53:00,
2013-04-10 20:02:00,78.0,53.0,29.84,SW,225,1.0,6.0,42,0.00,,,0.00,,2013-04-11 00:02:00,
2013-04-10 20:13:00,78.0,53.0,29.84,SW,225,1.0,6.0,42,0.00,,,0.00,,2013-04-11 00:13:00,
2013-04-10 20:23:00,77.0,53.0,29.85,WSW,241,2.0,5.0,43,0.00,,,0.00,,2013-04-11 00:23:00,
2013-04-10 20:32:00,77.0,53.0,29.85,WSW,241,2.0,5.0,43,0.00,,,0.00,,2013-04-11 00:32:00,
2013-04-10 20:42:00,77.0,53.0,29.85,WSW,241,2.0,5.0,43,0.00,,,0.00,,2013-04-11 00:42:00,
2013-04-10 20:53:00,76.0,52.0,29.85,WSW,245,1.0,3.0,44,0.00,,,0.00,,2013-04-11 00:53:00,
2013-04-10 21:02:00,76.0,52.0,29.85,SW,234,1.0,3.0,44,0.00,,,0.00,,2013-04-11 01:02:00,
2013-04-10 21:12:00,76.0,53.0,29.86,SW,225,0.0,0.0,45,0.00,,,0.00,,2013-04-11 01:12:00,
2013-04-10 21:22:00,76.0,53.0,29.86,SW,225,0.0,0.0,45,0.00,,,0.00,,2013-04-11 01:22:00,
2013-04-10 21:32:00,75.0,52.0,29.87,SW,225,0.0,6.0,45,0.00,,,0.00,,2013-04-11 01:32:00,
2013-04-10 21:42:00,75.0,52.0,29.87,SW,225,0.0,6.0,45,0.00,,,0.00,,2013-04-11 01:42:00,
2013-04-10 21:52:00,75.0,52.0,29.87,SW,225,0.0,6.0,45,0.00,,,0.00,,2013-04-11 01:52:00,
2013-04-10 22:03:00,74.0,52.0,29.88,SW,226,0.0,0.0,46,0.00,,,0.00,,2013-04-11 02:03:00,
2013-04-10 22:12:00,74.0,52.0,29.89,West,262,0.0,3.0,46,0.00,,,0.00,,2013-04-11 02:12:00,
2013-04-10 22:22:00,74.0,52.0,29.89,West,262,0.0,3.0,46,0.00,,,0.00,,2013-04-11 02:22:00,
2013-04-10 22:32:00,74.0,52.0,29.93,NNE,27,9.0,14.0,47,0.00,,,0.00,,2013-04-11 02:32:00,
2013-04-10 22:42:00,74.0,52.0,29.93,NNE,27,9.0,14.0,47,0.00,,,0.00,,2013-04-11 02:42:00,
2013-04-10 22:52:00,68.0,52.0,29.96,North,349,13.0,20.0,57,0.00,,,0.00,,2013-04-11 02:52:00,
2013-04-10 23:02:00,65.0,52.0,29.96,NW,312,7.0,14.0,63,0.00,,,0.00,,2013-04-11 03:02:00,
2013-04-10 23:12:00,65.0,52.0,29.96,NW,312,7.0,14.0,63,0.00,,,0.00,,2013-04-11 03:12:00,
2013-04-10 23:22:00,63.0,51.0,29.94,NNE,30,5.0,12.0,66,0.00,,,0.00,,2013-04-11 03:22:00,
2013-04-10 23:33:00,63.0,52.0,29.94,NE,56,1.0,5.0,67,0.00,,,0.00,,2013-04-11 03:33:00,
2013-04-10 23:43:00,62.0,51.0,29.92,NE,45,3.0,5.0,67,0.00,,,0.00,,2013-04-11 03:43:00,
2013-04-10 23:54:00,62.0,51.0,29.92,NE,45,3.0,5.0,67,0.00,,,0.00,,2013-04-11 03:54:00,